Regional Weather Roundup
Issued by NWS

Home | Current Version | Previous Version | Graphics & Text | Print | Product List | Glossary On
Versions: 1 2 3 4 5 6 7 8 9 10 11 12 13 14 15 16 17 18 19 20 21 22 23 24 25 26 27 28 29 30 31 32 33 34 35 36 37 38 39 40 41 42 43 44 45 46 47 48 49 50
000
ASUS45 KSLC 221310
RWRUT

UTAH REGIONAL WEATHER ROUNDUP
NATIONAL WEATHER SERVICE SALT LAKE CITY UT
700 AM MDT MON MAY 22 2017

UTZ001>011-023>025-221400-

NORTHERN UTAH

CITY           SKY/WX    TMP DP  RH WIND       PRES   REMARKS
BRIGHAM CITY   CLEAR     46  41  81 NW3       30.27R
HILL AFB       CLEAR     46  39  76 E14       30.26R
LOGAN          CLEAR     42  38  85 CALM      30.28R
OGDEN          CLEAR     48  41  76 S6        30.26R
SALT LAKE CITY PTCLDY    51  44  77 SE7       30.25R
TOOELE VALLEY  CLEAR     45  43  93 S7        30.26R
WENDOVER       PTCLDY    52  41  66 E3        30.25R
WEST JORDAN    CLEAR     50  49  96 CALM      30.27R

$$

UTZ011>015-024>027-221400-

CENTRAL/NORTHEAST UTAH

CITY           SKY/WX    TMP DP  RH WIND       PRES   REMARKS
PROVO AIRPORT  CLEAR     45  41  86 S5        30.28R
MOAB/CANYONLAN CLEAR     42  41  96 CALM      30.21R
DELTA          CLEAR     41  37  87 CALM      30.26R
PRICE          CLEAR     45  38  76 N7        30.25R
ROOSEVELT      CLEAR     41  36  81 CALM      30.29R
VERNAL         SUNNY     44  36  73 W3        30.27R

$$

UTZ013>016-019>022-027-221400-

SOUTHERN UTAH

CITY           SKY/WX    TMP DP  RH WIND       PRES   REMARKS
BRYCE CANYON   CLEAR     29  27  92 SW5       30.33R WCI  24
CEDAR CITY     CLEAR     39  34  82 CALM      30.25R
MILFORD        CLEAR     43  37  79 CALM      30.25R
ST GEORGE      SUNNY     64  39  39 CALM      30.12R
HANKSVILLE     CLEAR     39  34  81 CALM      30.24S
BLANDING       CLEAR     42  34  74 CALM      30.29R

$$

REGIONAL REPORTS     COLORADO/ARIZONA

CITY           SKY/WX    TMP DP  RH WIND       PRES   REMARKS
CRAIG, CO      CLOUDY    34  32  92 CALM      30.30R
GRAND JUNCTION SUNNY     50  42  74 CALM      30.22R
RIFLE, CO      PTSUNNY   44  40  85 CALM      30.25S
MONTROSE, CO   CLOUDY    42  40  92 SE3       30.27R
CORTEZ, CO     SUNNY     38  35  89 E6        30.21R WCI  33
COLORADO CITY    N/A     45  36  70 CALM      30.22R
PAGE, AZ       CLEAR     58  41  53 CALM      30.17R
GRAND CANYON   CLEAR     37  32  82 CALM      30.26R
KINGMAN, AZ    CLEAR     56  27  32 E3        30.05R
FLAGSTAFF, AZ  CLEAR     38  29  70 CALM      30.26R

$$

REGIONAL REPORTS    NEVADA/IDAHO/WYOMING

CITY           SKY/WX    TMP DP  RH WIND       PRES   REMARKS
LAS VEGAS, NV  PTCLDY    76  35  22 NE8       30.01R
ELY, NY        PTCLDY    33  29  85 S8        30.32R WCI  26
ELKO, NV       MOCLDY    43  37  79 CALM      30.28R
POCATELLO, ID  PTCLDY    46  42  86 CALM      30.27R
BURLEY, ID     PTCLDY    49  42  77 CALM      30.24R
FORT BRIDGER,    N/A     43  39  87 W10       30.33S
EVANSTON, WY   CLEAR     38  37  97 S6        30.32R WCI  33
ROCK SPRINGS,  SUNNY     38  35  89 SW7       30.29S WCI  33
KEMMERER, WY     N/A     37  34  87 NW9       30.32R WCI  31

$$



USA.gov is the U.S. government's official web portal to all federal, state and local government web resources and services.